User: anonymous   Login
Location: Saint Francis Village
(32.6154°N, 97.4559°W)
Time: 01:12:16
(UTC+00:00)
Language:

CAS-4A - Orbit

View from above orbital plane
View from above orbital plane
View from above satellite
View from above satellite

Ground track
Ground track

The orbit data is extracted from the following two-line orbital elements,

1 42761U 17034D   24340.40730204  .00047138  00000-0  11148-2 0  9998
2 42761  43.0187 329.3554 0013630  86.5765 273.6651 15.40983973413698
Epoch (UTC): 05 December 2024 09:46:30
Eccentricity: 0.0013630
inclination: 43.0187°
perigee height: 434 km
apogee height: 452 km
right ascension of ascending node: 329.3554°
argument of perigee: 86.5765°
revolutions per day: 15.40983973
mean anomaly at epoch: 273.6651°
orbit number at epoch: 41369

The dashed part of the orbit path shows where the satellite is in the earth's shadow,  

DLR